Location: Big Sky Observatory Site
(50.2333°N, 113.4000°W)
Time: 00:39:16
(UTC-07:00)

Tiangong 2 - Visible Passes

Search period start: 24 November 2017 00:00
Search period end: 04 December 2017 00:00
Orbit: 386 x 392 km, 42.8° (Epoch: 24 November)

Date Brightness Start Highest point End Pass type
(mag) Time Alt. Az. Time Alt. Az. Time Alt. Az.
28 Nov 3.9 07:08:20 10° SSW 07:10:27 16° SSE 07:12:34 10° ESE visible
29 Nov 4.0 06:10:54 10° S 06:12:26 13° SSE 06:13:58 10° SE visible
30 Nov 3.5 06:48:06 10° SW 06:50:30 20° S 06:52:55 10° ESE visible
01 Dec 3.5 05:51:56 16° S 05:52:25 17° SSE 05:54:34 10° ESE visible
01 Dec 3.3 07:26:07 10° SW 07:28:38 21° S 07:31:09 10° SE visible
02 Dec 3.2 06:28:50 15° SW 06:30:31 21° S 06:33:03 10° SE visible
03 Dec 3.6 05:33:20 18° SSE 05:33:20 18° SSE 05:34:50 10° ESE visible
03 Dec 3.3 07:06:15 10° WSW 07:08:38 19° S 07:11:01 10° SE visible
